Location: Bothwell
(41.7170°N, 112.2589°W)
Time: 02:20:56
(UTC+00:00)

Tiros 1 - Pass Details

Date: 16 May 2026
Orbit: 618 x 649 km, 48.4° (Epoch: 6 June)

Event Time Altitude Azimuth Distance (km) Brightness Sun altitude
Rises 10:59:47 0° 296° (WNW) 2,902 10.3 -11.5°
Reaches altitude 10° 11:02:10 10° 302° (WNW) 1,990 9.5 -11.2°
Maximum altitude 11:06:37 50° 18° (NNE) 794 8.0 -10.5°
Drops below altitude 10° 11:11:01 10° 94° (E) 1,976 10.4 -9.9°
Sets 11:13:23 0° 100° (E) 2,880 11.2 -9.5°
